Kosmos-1176

operational
NORAD ID: 11788 Int'l Des: 1980-034 Owner: VMF Country: SU
LEOCIRCULAR

About Kosmos-1176

Description loading...

Live Position

Loading 3D Globe...

Upcoming Passes

Altitude History

Altitude vs Time

uPlot chart will show altitude changes over time

Two-Line Element Set

1 11788U 80034A 26061.39091153 -.00000038 00000-0 40875-4 0 9996
2 11788 64.8282 295.4895 0058868 300.7851 58.7425 13.93138818326948
Epoch: Mar 2, 2026 • Age: 34 hours

Current Status

Altitude 936.6 km
Velocity 7.38 km/s
Sub-Earth Point -8.18°S, 159.21°E
Launch Date Apr 29, 1980
Age 45.8 years
Type other

Technical Details

Classification Payload
Mass 1154.00 kg
Dry Mass 1154.00 kg
Total Mass 4300.00 kg
Length 5.80 m
Diameter 1.30 m
Span 5.80 m
Shape Cyl
Manufacturer KOMET
Bus Type US-A reactor
Phase Status In Orbit
Owner/State VMF/SU

Large Constellations

Loading constellations...